DW8006 Weather Reports


Display with metric or nautical units.
time (UTC)temp
F
wind
direction
speed
MPH
gust
MPH
rain 1hr
in
rain 24hr
in
rain mn
in
humidity
%
barometer
mb
20260503180416 58 124 1.0 4.0 0.00 0.00 0.00 70 1012.5
20260503175417 59 153 1.0 5.0 0.00 0.00 0.00 70 1012.5
20260503174420 59 244 1.0 7.0 0.00 0.00 0.00 70 1012.6
20260503174416 59 240 1.0 5.0 0.00 0.00 0.00 70 1012.6
20260503173628 59 260 1.0 4.0 0.00 0.00 0.00 70 1012.7
20260503171913 59 205 2.0 6.0 0.00 0.03 0.00 71 1012.5
20260503170412 59 229 2.0 7.0 0.00 0.13 0.00 71 1012.7
20260503150402 64 247 5.0 13.0 0.00 0.13 0.00 57 1012.6
20260503131356 64 136 3.0 8.0 0.00 0.13 0.00 59 1012.8
20260503130356 65 125 4.0 15.0 0.00 0.13 0.00 58 1012.7
20260503110354 69 142 7.0 27.0 0.00 0.13 0.00 42 1012.7
20260503110350 68 124 9.0 26.0 0.00 0.13 0.00 44 1012.7
20260503081338 65 84 5.0 11.0 0.00 0.13 0.00 55 1013.4
20260503080839 64 77 4.0 10.0 0.00 0.13 0.00 56 1013.5
20260503072837 63 80 4.0 10.0 0.00 0.13 0.00 56 1013.5
20260503071336 62 110 4.0 11.0 0.00 0.13 0.00 55 1013.5
20260503070335 62 139 4.0 9.0 0.00 0.13 0.00 59 1013.5
20260503054331 56 100 2.0 6.0 0.00 0.13 0.00 66 1013.1
20260503053332 55 105 1.0 4.0 0.00 0.13 0.00 68 1013.1
20260503052331 55 124 1.0 4.0 0.00 0.13 0.00 68 1013.2
20260503051332 55 115 1.0 6.0 0.00 0.13 0.00 70 1013.1
20260503050331 54 103 1.0 3.0 0.00 0.13 0.00 69 1013.1
20260503045332 54 115 1.0 4.0 0.00 0.13 0.00 70 1013.1
20260503044332 54 84 2.0 3.0 0.00 0.13 0.00 69 1013.2
20260503043331 55 105 2.0 8.0 0.00 0.13 0.00 69 1013.2
20260503042332 55 115 2.0 6.0 0.00 0.13 0.00 68 1013.1
20260503041332 55 115 2.0 7.0 0.00 0.13 0.00 68 1013.3
20260503040331 55 90 3.0 8.0 0.00 0.13 0.00 67 1013.2
20260503035331 55 132 1.0 8.0 0.00 0.13 0.00 67 1013.2
20260503034332 55 128 2.0 6.0 0.00 0.13 0.00 66 1012.9
20260503033332 55 203 2.0 7.0 0.00 0.13 0.00 67 1013.3
20260503032331 55 115 2.0 7.0 0.00 0.13 0.00 66 1013.2
20260503031332 55 112 1.0 3.0 0.00 0.13 0.00 67 1013.2
20260503030332 55 115 1.0 5.0 0.00 0.13 0.00 68 1013.4
20260503025332 55 124 1.0 5.0 0.00 0.13 0.00 68 1013.3
20260503024331 55 83 1.0 4.0 0.00 0.13 0.00 69 1013.3
20260503023331 55 115 1.0 3.0 0.00 0.13 0.00 70 1013.5
20260503022833 55 109 2.0 4.0 0.00 0.13 0.00 69 1013.6
20260503021331 55 98 1.0 3.0 0.00 0.13 0.00 71 1013.5
20260503020330 55 98 0.0 2.0 0.00 0.13 0.00 72 1013.5
20260503015327 55 99 0.0 2.0 0.00 0.13 0.00 70 1013.5
20260503014327 55 163 0.0 2.0 0.00 0.13 0.00 69 1013.6
20260503013327 55 116 1.0 4.0 0.00 0.13 0.00 69 1013.5
20260503012327 56 134 1.0 3.0 0.00 0.13 0.00 68 1013.6
20260503011327 56 123 1.0 4.0 0.00 0.13 0.00 68 1013.7
20260503010328 57 141 2.0 7.0 0.00 0.13 0.00 67 1013.6
20260503005327 57 109 1.0 3.0 0.00 0.13 0.00 66 1013.8
20260503004327 57 128 1.0 5.0 0.00 0.13 0.00 65 1013.7
20260503003328 57 141 1.0 4.0 0.00 0.13 0.00 66 1014.0
20260503002327 57 130 1.0 5.0 0.00 0.13 0.00 66 1014.0
20260503001327 57 144 2.0 7.0 0.00 0.13 0.00 68 1014.1
20260503000325 57 152 1.0 5.0 0.00 0.13 0.00 70 1014.3
20260502235324 57 117 1.0 5.0 0.00 0.13 0.00 70 1014.4
20260502234324 58 140 1.0 7.0 0.00 0.13 0.00 70 1014.4
20260502233325 57 169 4.0 8.0 0.00 0.13 0.00 68 1014.4
20260502232325 56 179 2.0 7.0 0.00 0.13 0.00 75 1014.5
20260502231325 56 127 1.0 3.0 0.00 0.13 0.00 77 1014.6
20260502230329 56 119 1.0 4.0 0.00 0.13 0.00 80 1014.7
20260502230324 56 167 0.0 3.0 0.00 0.13 0.00 78 1014.6
20260502224324 55 126 0.0 4.0 0.00 0.13 0.00 80 1014.8
20260502223328 55 128 0.0 2.0 0.00 0.13 0.00 81 1014.6
20260502223324 55 129 0.0 2.0 0.00 0.13 0.00 81 1014.7
20260502221325 56 107 0.0 4.0 0.00 0.13 0.00 81 1014.7
20260502220322 55 140 1.0 5.0 0.00 0.13 0.00 82 1014.7
20260502215326 55 86 0.0 1.0 0.00 0.13 0.13 85 1014.8
20260502215322 55 123 0.0 2.0 0.00 0.13 0.13 84 1014.8
20260502213322 56 82 0.0 2.0 0.00 0.13 0.13 85 1014.8
20260502212323 56 99 0.0 3.0 0.00 0.13 0.13 86 1014.8
20260502211322 56 108 0.0 3.0 0.00 0.13 0.13 86 1014.9
20260502210322 56 107 0.0 2.0 0.00 0.13 0.13 86 1015.0
20260502205322 56 108 0.0 2.0 0.00 0.13 0.13 86 1015.0
20260502204322 56 108 0.0 1.0 0.00 0.13 0.13 87 1015.1
20260502203322 56 108 0.0 2.0 0.00 0.13 0.13 88 1015.1
20260502202819 56 108 0.0 2.0 0.00 0.13 0.13 88 1015.2
20260502201318 56 108 0.0 2.0 0.00 0.13 0.13 89 1015.1
20260502200318 56 134 0.0 2.0 0.00 0.13 0.13 90 1015.2
20260502195318 56 87 0.0 2.0 0.00 0.13 0.13 90 1015.2
20260502194318 56 114 0.0 3.0 0.00 0.13 0.13 90 1015.2
20260502193318 57 111 0.0 2.0 0.00 0.13 0.13 90 1015.1
20260502192318 57 114 1.0 3.0 0.00 0.13 0.13 90 1015.0
20260502191318 57 100 1.0 2.0 0.00 0.13 0.13 89 1015.0
20260502190318 57 100 1.0 2.0 0.00 0.13 0.13 89 1015.0
20260502185318 58 111 0.0 2.0 0.00 0.13 0.13 89 1015.0
20260502184318 58 111 0.0 1.0 0.00 0.13 0.13 89 1015.1
20260502183318 58 111 0.0 1.0 0.00 0.13 0.13 88 1015.1